Theta_e
313 313 313 313 312 312 311 310 310 309 308 308 307 307 306 305 305 304 304 303 303 303 302 302 302 301 301 300 300 300 300 299 299 299 299 298 298 298 298 298 298 297 297 297 297 297 297 297 297 296 296 296 296 296 296 297 297 298 299 300 300 302 303 305 306 306 304 302 304 304 305 306 306 306 306 306 306 306 307 307 307 306 306 305 305
313 313 312 312 311 310 309 309 308 307 306 306 305 305 305 304 304 303 303 302 302 302 301 301 300 300 300 299 299 299 298 298 298 298 298 298 297 297 297 297 297 297 297 297 297 296 296 296 296 296 295 295 295 295 295 295 295 296 296 298 298 299 301 302 303 303 303 300 300 302 303 303 303 303 304 304 304 304 304 304 304 304 304 305 305
312 311 311 310 309 309 308 307 306 305 305 304 304 304 303 303 303 302 302 301 301 300 300 300 299 299 298 298 298 298 297 297 297 297 297 297 297 297 297 297 297 297 297 297 296 296 296 296 296 296 295 295 295 294 294 294 294 294 294 295 296 296 298 300 300 300 301 300 299 299 300 301 301 302 302 302 302 302 302 303 303 304 305 305 305
310 310 309 309 308 307 307 306 305 304 304 303 303 302 302 302 301 301 301 300 300 299 299 298 298 298 298 297 297 297 297 297 296 296 296 296 296 296 297 296 296 296 296 296 296 296 296 296 296 295 295 295 295 294 294 294 293 294 294 293 294 294 295 298 300 299 299 300 299 298 299 301 301 301 302 301 301 302 302 303 303 304 304 304 304
309 309 308 308 307 306 305 305 304 304 303 302 302 301 301 300 300 300 300 299 299 298 298 298 298 297 297 297 297 297 297 296 296 297 296 296 296 296 296 296 296 296 296 296 296 296 296 296 295 295 295 295 295 294 293 294 293 293 294 293 293 294 294 296 298 298 297 298 299 298 298 300 300 300 301 301 300 301 301 302 303 303 303 304 304
308 308 307 307 305 305 304 303 303 302 302 301 301 300 300 299 299 300 299 299 299 298 298 298 297 297 297 297 297 297 297 297 297 296 296 296 296 296 296 296 296 296 296 295 295 295 295 295 295 294 294 294 294 294 293 293 293 293 293 293 293 294 294 295 296 297 296 296 298 298 298 298 299 300 300 300 300 300 301 301 302 302 303 303 303
307 306 305 305 304 303 302 302 302 301 301 300 300 300 299 299 299 299 299 299 298 298 298 297 297 297 297 297 297 297 296 296 296 296 296 296 296 296 295 295 295 295 295 295 295 295 294 294 294 294 293 293 292 293 292 292 293 293 293 294 293 294 294 295 296 297 296 295 296 297 298 298 298 299 299 299 299 300 300 301 301 302 302 303 303
306 304 304 303 302 302 301 301 301 300 300 300 300 299 299 299 299 299 299 298 298 297 297 297 297 296 296 296 296 296 296 296 296 296 295 295 295 295 295 295 295 295 295 295 294 294 294 294 294 293 292 292 292 292 292 292 292 293 293 294 294 294 294 295 296 297 296 295 295 296 296 297 297 297 298 298 299 299 300 300 301 301 301 302 302
304 303 302 302 301 301 301 301 300 300 300 299 299 298 298 298 298 298 298 297 297 297 296 296 296 296 296 296 296 296 295 295 295 295 295 295 294 294 294 294 294 294 294 294 294 294 294 293 293 293 292 292 291 291 291 292 293 293 293 293 295 295 295 295 296 297 296 295 295 295 295 295 296 296 297 298 298 299 299 300 300 300 301 301 301
302 302 302 301 301 301 300 300 300 299 299 298 298 298 297 297 297 297 297 297 296 296 296 296 296 296 296 295 295 295 295 295 295 294 294 294 294 294 294 294 294 294 294 294 294 294 293 293 293 292 292 291 291 291 291 291 292 293 293 293 295 295 295 295 296 296 295 294 294 294 295 295 295 296 297 297 298 298 299 299 299 299 299 299 299
301 301 301 301 300 300 300 299 299 298 298 297 297 297 297 297 297 297 297 296 296 296 296 296 295 295 295 295 295 295 294 294 294 294 294 294 294 294 294 294 294 293 293 293 293 293 293 293 292 292 291 291 291 290 290 290 291 292 293 293 295 296 296 295 296 296 295 294 294 294 294 295 295 295 296 297 297 298 298 298 298 298 298 298 299
300 300 300 300 300 299 299 298 298 297 297 297 297 297 297 297 297 297 296 296 296 296 295 295 295 295 295 294 294 294 294 294 294 294 294 293 293 293 293 293 293 293 293 293 293 293 293 292 292 292 291 291 291 290 290 290 290 291 292 293 294 295 295 295 295 295 294 294 294 294 294 294 295 295 296 297 297 296 296 297 297 297 297 298 298
300 300 300 299 298 298 298 298 297 297 297 297 297 297 297 297 297 296 296 296 295 295 295 295 294 294 294 294 294 294 294 293 293 293 293 293 293 293 293 293 293 292 292 292 292 292 292 292 292 292 291 291 290 290 290 290 290 291 292 293 294 294 295 295 295 294 294 294 294 294 293 294 294 294 295 296 296 296 295 295 296 296 296 297 297
299 299 299 298 298 297 297 297 297 297 297 297 297 297 297 297 296 296 295 295 295 295 295 294 294 294 294 294 294 293 293 293 293 293 293 292 292 292 292 292 292 292 292 292 291 291 291 291 291 291 291 291 290 290 290 290 291 292 293 294 294 294 295 295 294 294 294 294 294 294 293 293 294 294 294 295 296 295 295 294 294 295 295 295 296
299 298 298 297 297 297 297 297 297 297 297 297 297 297 297 296 296 296 295 295 295 294 294 294 294 293 293 293 293 293 293 292 292 292 292 292 292 291 291 291 291 291 291 291 291 290 290 290 290 290 291 291 290 290 290 291 292 293 293 294 294 294 294 294 294 294 294 293 293 293 293 293 293 294 294 295 295 295 295 294 293 294 294 294 294
298 297 297 297 297 297 297 297 297 298 298 297 297 296 296 296 295 295 295 294 294 294 294 293 293 293 293 292 292 293 293 292 292 291 291 291 291 291 290 290 290 290 290 290 290 290 290 290 290 290 290 290 291 290 290 291 293 293 293 293 293 294 294 294 294 294 294 293 293 293 293 293 293 294 294 294 295 294 293 293 293 293 293 293 293
297 297 297 297 297 296 297 297 298 298 297 297 296 296 295 295 295 294 294 294 294 293 293 293 292 292 292 292 292 292 292 292 291 291 291 290 290 290 290 289 290 290 290 290 290 289 289 289 289 289 289 289 290 290 290 291 292 292 292 292 293 293 293 293 294 294 294 293 292 292 292 292 293 293 294 294 294 294 293 292 292 292 292 292 292
297 297 297 296 296 296 297 297 297 297 297 296 295 295 294 294 294 294 294 293 293 292 292 292 292 291 291 291 291 291 291 291 291 290 290 290 289 289 289 289 289 289 289 289 289 289 289 289 289 289 289 289 290 290 290 291 291 291 290 291 291 292 293 293 293 294 293 293 292 292 292 292 292 293 293 294 294 294 292 291 292 292 291 292 292
297 297 296 296 296 296 297 297 297 296 295 295 294 294 293 293 293 293 292 292 292 291 291 291 291 291 291 291 291 290 290 291 291 290 289 289 289 288 288 288 288 288 288 288 288 288 288 288 288 288 288 288 289 290 289 290 290 289 289 289 289 290 292 292 292 293 293 292 292 292 291 291 291 291 292 293 293 293 292 292 291 291 291 291 291
296 296 296 295 296 296 296 296 296 295 294 293 293 293 293 293 292 292 292 291 291 291 291 290 291 291 290 290 290 290 290 290 290 290 289 289 288 288 288 288 288 288 288 288 288 288 288 288 288 288 288 288 289 289 288 288 289 288 288 288 288 289 290 291 291 291 291 291 292 291 290 290 290 291 291 292 292 292 292 292 291 291 291 291 291
296 295 295 295 295 295 295 295 294 293 293 293 292 292 292 292 291 291 291 291 291 290 290 290 290 290 290 290 290 290 290 290 290 289 289 288 288 288 287 287 287 287 287 287 288 288 288 288 288 288 287 288 288 288 287 288 288 288 288 288 288 288 289 289 289 290 289 290 290 290 289 289 290 290 290 290 290 290 291 291 291 291 290 291 290
295 295 294 294 294 294 294 294 293 292 292 292 292 292 291 291 291 290 290 290 290 290 289 289 289 290 290 290 290 289 289 289 289 289 288 288 287 287 287 287 287 286 286 287 287 287 287 287 287 287 287 287 287 287 287 287 287 287 287 288 288 288 288 287 288 289 289 289 289 289 289 289 289 289 289 289 289 290 290 290 290 290 290 290 290
294 294 294 294 294 294 293 292 292 292 292 292 291 291 291 290 290 290 290 289 289 289 289 289 289 289 289 290 290 289 289 289 288 288 288 287 287 287 287 287 286 286 285 286 286 286 286 286 286 286 286 286 286 286 287 287 287 287 287 288 288 288 287 287 287 288 288 288 288 288 288 288 288 289 289 289 289 289 289 289 289 289 289 289 288
294 293 293 293 293 292 292 292 292 291 291 291 291 290 290 290 290 289 289 289 289 289 288 288 288 288 288 289 289 289 289 288 288 288 287 287 287 287 287 286 286 285 284 284 284 284 284 285 285 286 285 285 285 286 286 286 286 286 287 288 288 287 286 286 287 288 288 288 287 287 287 287 288 288 288 289 289 288 288 288 288 288 288 288 288
293 293 293 293 292 292 292 291 291 291 291 290 290 290 290 290 289 289 289 288 288 288 288 288 288 287 288 288 288 288 288 288 288 287 287 287 287 286 286 286 285 284 283 283 283 283 283 284 284 284 284 285 285 286 286 286 286 287 287 288 288 287 286 286 287 287 287 287 287 287 287 287 288 288 288 288 287 287 287 287 287 287 287 287 287
293 293 292 292 292 291 291 291 291 290 290 290 289 289 289 289 289 289 288 288 288 288 287 287 287 287 287 287 287 287 288 288 287 287 287 286 286 286 286 286 285 284 283 282 282 282 283 283 283 284 284 285 285 286 286 286 287 287 288 288 287 287 287 287 286 286 286 286 286 287 287 287 287 288 287 287 286 286 286 286 287 287 287 287 286
292 292 292 292 292 291 291 290 290 290 289 289 289 289 289 289 288 288 288 288 287 287 287 287 287 287 287 287 286 287 287 287 287 287 286 286 286 286 285 285 284 283 282 282 282 282 283 283 283 284 284 285 285 286 286 287 287 287 287 287 287 287 287 286 286 286 286 286 286 287 287 287 287 287 287 286 285 285 285 285 286 286 286 286 286
292 292 291 291 291 290 290 290 289 289 289 289 289 289 288 288 288 288 287 287 287 287 287 287 286 286 286 286 286 286 286 287 286 286 286 285 285 284 283 283 282 282 281 282 282 282 283 283 283 284 284 285 285 286 286 287 287 287 287 287 287 287 286 286 286 286 286 286 286 287 287 287 287 286 286 285 285 284 284 285 285 286 285 285 285
292 291 291 290 290 290 289 289 289 289 289 289 289 288 288 288 288 288 287 287 287 287 286 286 286 285 285 285 285 285 285 286 286 285 284 284 283 282 281 281 281 281 281 282 282 282 282 283 283 284 284 285 285 285 286 286 286 286 286 286 286 286 286 286 285 285 286 286 286 286 286 286 286 286 285 285 284 284 284 284 285 285 285 285 285
291 291 290 290 289 289 289 289 289 289 289 288 288 288 288 288 287 287 287 287 286 286 286 285 285 285 285 285 285 284 283 283 284 284 283 283 283 283 283 282 281 281 281 281 282 282 282 283 283 284 284 284 285 285 285 286 286 286 286 286 286 286 286 285 285 285 285 285 286 286 286 286 286 285 284 284 284 284 284 284 284 285 285 284 284
290 290 290 289 289 289 289 288 288 288 288 288 288 288 288 288 287 287 287 287 286 286 285 285 285 284 284 284 284 284 283 282 282 282 282 282 282 282 282 282 282 281 281 281 281 281 282 282 283 283 284 284 284 285 285 285 286 286 286 286 286 286 285 285 285 285 285 285 285 285 285 285 285 284 284 283 283 284 283 283 284 284 284 284 284
290 290 289 289 289 288 288 288 288 288 288 287 287 287 287 287 288 288 287 286 286 286 285 285 284 284 283 283 283 283 283 283 282 282 281 280 279 278 280 281 282 282 282 281 280 281 282 282 283 283 283 284 284 284 285 285 285 286 286 286 286 285 285 285 285 285 285 284 284 285 285 284 284 283 283 283 283 284 283 283 283 284 284 284 284
289 289 289 288 288 288 288 288 288 287 287 287 287 287 287 287 287 287 287 287 286 286 285 284 284 283 283 282 282 281 281 282 282 282 281 280 279 278 279 280 281 281 280 279 280 280 281 282 282 283 283 283 283 284 285 285 285 286 286 286 285 285 285 285 284 284 284 284 284 284 284 284 283 282 282 283 283 283 283 283 283 284 284 284 284
289 288 288 288 288 288 288 287 287 287 287 287 287 286 286 286 286 286 286 287 287 286 286 284 283 283 283 283 282 281 280 280 280 279 280 280 280 279 278 278 279 280 279 278 278 279 280 280 281 281 282 282 283 284 285 285 285 285 285 285 285 285 284 284 284 284 284 284 284 284 284 283 282 282 282 283 283 283 283 283 283 283 284 284 283
288 288 288 288 288 287 287 287 287 287 286 286 286 286 286 286 286 285 285 285 286 286 285 285 283 282 282 282 282 282 281 280 279 278 277 277 278 277 277 277 278 278 278 278 278 278 279 279 280 280 281 282 283 284 284 285 285 285 285 285 284 284 284 283 283 283 283 283 283 283 283 283 282 282 283 283 283 283 283 283 283 283 283 283 283
288 288 288 288 287 287 287 287 286 286 286 286 286 286 285 285 285 285 284 284 284 283 284 284 283 283 282 281 281 281 281 280 279 278 276 276 276 275 275 275 276 276 277 277 277 278 278 279 279 280 281 281 282 283 284 284 284 284 284 284 284 284 283 283 283 283 283 283 283 283 283 282 282 282 283 283 283 283 283 283 283 283 283 283 282
288 288 287 287 287 287 287 286 286 286 286 286 285 285 285 284 284 284 283 283 282 282 281 281 282 282 282 281 280 280 280 279 279 278 277 276 275 275 274 274 274 275 276 276 277 277 277 278 279 280 281 281 282 283 283 284 284 284 284 284 284 283 283 282 282 282 282 283 283 283 282 282 282 283 283 283 283 283 283 283 283 282 282 282 281
287 287 287 287 287 286 286 286 286 286 285 285 285 284 284 284 283 283 282 282 281 280 280 280 280 280 280 280 280 280 279 279 279 279 278 277 276 275 274 274 274 275 275 276 276 277 278 279 280 281 281 282 282 282 283 283 283 283 284 283 283 283 283 282 282 282 282 282 283 283 283 282 283 283 283 284 284 284 283 283 282 282 281 280 280
287 287 287 287 286 286 286 286 285 285 285 284 284 284 283 283 282 282 281 281 280 279 279 278 278 278 278 278 278 278 278 278 278 278 278 278 276 275 274 274 274 275 276 276 277 278 278 280 281 282 282 282 282 282 283 283 283 283 283 283 283 283 282 282 282 282 283 283 283 283 283 283 283 283 283 284 284 284 283 282 282 281 280 280 279
287 287 286 286 286 286 285 285 285 284 284 284 283 283 282 282 282 281 280 279 279 278 278 277 277 277 276 276 275 275 276 276 276 276 276 277 276 275 274 275 275 276 277 277 278 279 279 280 281 282 282 282 282 282 282 282 283 283 283 283 283 283 282 282 282 283 283 284 284 284 284 283 283 283 283 284 284 283 283 282 281 280 280 279 279
286 286 286 286 285 285 285 284 284 284 283 283 282 282 282 281 281 280 279 279 278 278 277 277 277 276 276 275 274 274 274 274 275 275 275 275 275 275 275 275 276 276 277 278 279 279 280 281 282 282 282 282 282 282 282 282 283 283 283 283 283 283 283 283 283 283 284 284 285 284 284 284 284 284 284 283 283 283 283 282 281 280 279 279 279
286 286 286 285 285 284 284 283 283 283 282 282 282 281 281 280 280 279 278 278 277 277 277 277 277 276 275 275 274 274 274 274 274 274 274 275 275 275 275 275 276 276 277 278 279 280 281 281 282 281 281 281 281 282 282 282 283 283 283 282 282 283 283 283 284 284 284 285 285 285 285 284 284 284 284 283 283 283 282 282 281 279 279 278 278
286 285 285 285 284 284 283 283 283 282 282 281 281 280 280 279 279 278 278 277 277 277 277 277 276 276 275 275 274 274 274 274 273 274 274 274 274 275 275 275 276 276 277 278 278 279 279 280 280 280 280 281 281 281 281 282 282 283 283 282 282 282 283 283 284 284 285 285 285 285 285 285 285 284 284 283 283 282 282 281 280 279 279 278 278
285 285 284 284 283 283 283 282 282 281 281 280 280 279 279 278 278 278 277 277 276 276 276 276 276 276 275 275 275 274 274 273 273 274 274 274 274 274 274 275 275 276 276 277 277 277 278 278 279 279 280 280 280 281 281 282 282 283 283 283 283 283 283 284 284 284 284 284 285 285 285 285 285 284 284 283 282 282 282 281 280 279 278 278 278
285 284 284 283 283 282 282 282 281 281 280 280 279 278 278 278 278 277 276 276 276 276 276 276 275 275 275 275 274 274 273 273 273 273 274 274 274 274 274 274 275 275 276 276 276 277 277 278 278 279 279 280 280 281 281 281 282 282 283 283 283 283 283 283 283 283 283 284 284 285 285 284 284 284 283 282 282 282 281 281 280 279 278 278 277
284 283 283 283 282 282 282 281 281 280 280 279 279 278 278 277 277 276 276 276 275 275 275 275 275 274 274 274 274 273 273 273 273 273 273 274 274 274 274 274 275 275 276 276 276 277 277 277 278 279 279 279 280 280 280 281 281 282 282 283 283 283 283 283 283 283 283 283 283 283 284 284 284 283 283 282 281 281 281 280 279 278 278 277 277
283 283 282 282 282 281 281 280 280 280 279 279 278 278 278 277 276 276 275 275 275 275 275 274 274 274 274 274 273 273 273 272 272 272 273 273 273 274 274 274 274 275 275 276 276 276 276 277 277 277 277 278 278 278 278 279 280 281 282 282 282 282 283 283 283 283 283 283 283 283 283 283 283 282 282 281 281 280 280 279 278 277 277 276 276
282 282 281 281 281 280 280 280 279 279 279 278 278 277 277 276 276 275 275 274 274 274 274 274 273 273 273 273 273 273 272 272 272 272 272 273 273 273 273 273 273 274 275 275 276 276 275 275 276 276 276 276 276 276 277 278 279 280 280 281 281 282 282 282 282 282 282 282 282 282 282 281 281 281 281 280 280 279 278 277 277 276 276 276 275
281 281 281 280 280 280 279 279 279 278 278 277 277 277 276 276 275 275 274 274 274 274 273 273 273 273 273 273 272 272 272 272 272 272 273 273 273 273 273 272 272 273 273 274 275 275 274 274 274 275 275 275 276 276 276 277 278 278 279 279 280 280 280 281 281 281 281 281 281 281 281 280 280 280 279 279 278 277 277 277 276 276 276 275 275
280 280 280 280 279 279 279 278 278 277 277 277 277 276 276 275 275 274 274 274 274 273 273 273 273 273 273 272 272 272 272 272 272 272 272 273 273 273 272 272 272 272 273 273 273 273 273 274 274 274 274 275 275 275 276 276 277 277 278 278 279 279 279 279 279 280 280 280 280 280 280 279 278 278 277 277 277 276 276 276 276 275 275 275 275
280 280 279 279 278 278 278 278 277 277 276 276 276 276 275 275 275 274 274 274 273 273 273 273 273 272 272 272 272 272 272 272 272 272 272 272 272 273 273 272 272 272 273 273 273 273 273 273 273 274 274 274 275 275 275 276 276 277 277 277 277 277 278 278 278 278 278 278 278 278 278 278 277 277 276 276 276 276 275 275 275 274 274 274 274
Wind_Speed
11 10 10 9 9 8 8 7 6 5 4 3 2 1 1 2 3 5 6 7 8 9 10 11 12 13 14 14 15 16 17 18 19 20 20 21 22 23 24 25 26 27 28 28 29 31 32 33 33 33 34 35 35 34 34 33 33 33 33 34 35 33 31 31 38 48 55 55 55 55 51 49 51 50 48 49 49 48 47 46 46 47 49 50 48
11 10 10 10 9 9 8 7 6 5 4 3 1 0 1 2 4 5 6 8 9 10 11 12 12 13 14 15 16 17 18 20 21 22 23 24 25 25 27 28 29 31 32 33 34 35 37 38 38 38 38 39 39 37 37 36 35 35 35 34 36 36 34 33 35 42 51 56 54 54 52 50 51 52 49 48 48 48 48 48 48 49 48 47 46
12 11 10 10 9 8 8 6 5 4 3 2 1 1 2 3 4 5 6 8 9 10 12 13 14 15 16 17 18 19 21 22 22 24 25 26 28 28 30 31 33 35 36 37 38 39 41 42 42 42 42 43 43 41 40 39 38 38 38 37 37 38 37 36 36 39 46 53 55 55 54 52 52 52 50 49 48 48 48 48 47 47 47 46 46
12 11 10 10 9 8 7 6 5 3 2 1 1 1 2 3 4 6 8 9 11 12 14 15 16 18 18 19 21 21 22 23 24 26 27 29 30 31 32 34 35 37 38 39 41 42 43 44 44 45 45 46 46 45 44 43 42 42 42 41 40 40 40 38 38 38 42 49 54 55 54 54 53 53 51 49 49 49 48 47 47 47 47 47 46
12 11 10 10 9 8 6 5 5 3 2 2 1 2 3 5 6 8 10 11 13 15 16 18 19 20 21 22 22 23 24 25 26 27 28 30 31 33 34 35 36 37 39 40 41 42 44 45 46 46 47 48 48 48 47 46 45 45 44 44 43 43 42 41 40 40 41 46 52 55 55 54 54 54 51 49 49 50 48 48 48 48 48 48 47
12 11 10 9 8 8 7 6 5 4 3 1 1 3 5 7 8 10 12 14 16 18 19 21 21 22 23 23 24 24 25 26 27 28 29 30 32 33 35 36 37 38 39 40 42 43 44 46 47 47 47 48 49 49 48 48 47 47 46 45 45 44 44 44 42 41 41 44 49 53 55 55 54 53 51 48 49 50 50 50 49 49 49 48 48
12 11 10 10 9 8 7 6 5 3 1 1 3 5 7 10 11 13 15 16 18 20 21 22 22 23 23 24 24 24 25 26 27 29 30 32 33 35 36 37 38 40 40 42 43 44 46 47 48 49 49 49 49 49 49 48 48 48 47 45 45 45 45 45 44 42 42 43 47 51 53 54 53 52 51 49 50 50 50 50 51 50 49 48 48
13 12 11 11 9 8 7 5 3 2 2 3 6 8 10 12 13 15 16 18 19 20 21 22 22 23 23 24 24 25 26 27 28 30 31 33 35 36 38 40 41 43 44 45 46 47 48 49 50 51 51 51 50 50 49 48 48 49 48 45 44 44 44 45 44 44 43 43 46 49 50 53 53 52 51 50 50 51 50 49 50 51 49 49 48
14 13 12 11 9 8 6 4 2 2 3 5 7 9 11 13 14 16 17 18 20 20 21 22 23 23 24 24 25 26 27 28 30 32 34 35 38 39 41 43 44 46 47 48 49 50 50 52 52 53 53 53 52 51 50 48 46 48 48 46 43 43 43 44 44 44 44 43 46 47 48 51 53 51 49 49 49 50 49 48 49 50 50 49 48
15 14 12 10 9 7 5 3 2 3 4 6 8 10 12 14 15 17 18 19 20 21 22 23 24 25 26 27 27 28 29 30 32 34 35 38 40 41 43 45 46 47 49 50 51 52 53 54 54 55 55 55 54 53 52 50 48 47 47 45 43 42 42 43 44 43 42 42 44 47 48 51 53 50 49 49 49 48 48 49 49 49 48 47 46
15 13 11 10 8 6 5 3 3 4 5 7 9 11 13 15 17 18 19 20 21 22 24 25 26 27 28 29 30 31 31 32 33 35 36 38 40 42 44 46 47 49 50 52 53 54 55 56 56 57 56 56 56 55 54 53 51 49 47 45 43 41 40 41 42 42 40 41 43 45 47 52 54 52 50 50 49 48 48 48 47 46 45 44 44
14 12 11 9 7 6 4 3 3 5 7 9 11 13 15 17 18 20 21 22 23 24 25 26 27 29 30 31 32 33 33 34 35 36 38 39 41 44 46 47 49 51 52 53 54 55 57 57 57 57 57 57 57 56 56 55 54 52 50 48 46 44 42 39 39 38 38 39 42 45 47 50 53 53 52 50 49 48 47 45 45 44 43 43 43
13 11 10 8 7 5 4 4 4 6 8 11 13 15 16 18 20 21 22 23 25 26 27 28 29 30 32 33 33 34 35 35 36 38 39 41 43 45 47 49 50 52 53 53 54 55 56 57 58 58 58 57 57 56 56 55 55 53 52 51 50 49 46 43 39 36 35 36 40 44 46 47 50 52 51 50 49 48 47 45 44 44 43 43 42
13 11 9 8 6 5 4 4 5 7 10 12 14 16 18 20 21 23 24 25 27 28 29 30 31 31 33 34 35 36 36 36 38 39 41 42 44 46 48 50 51 52 53 53 54 55 55 55 57 59 59 58 57 56 55 54 54 53 53 53 53 52 50 48 43 39 37 37 39 43 44 45 47 49 49 48 49 49 47 45 44 44 44 43 41
13 11 9 7 5 4 4 5 6 9 11 13 15 18 19 21 23 25 26 27 28 29 30 31 32 32 33 34 36 36 37 38 39 40 42 43 45 47 49 50 52 53 54 54 54 54 55 55 56 58 59 59 59 56 54 53 52 52 53 54 54 53 53 51 48 45 43 42 41 42 43 42 43 45 45 46 47 47 46 45 43 42 42 41 39
13 10 8 7 5 5 5 6 8 10 12 15 17 19 21 23 25 26 27 28 29 30 30 31 32 33 34 35 36 38 38 39 40 41 42 44 45 47 49 50 52 54 54 55 55 55 55 55 56 58 58 59 58 57 54 50 48 49 51 53 54 55 55 54 51 48 47 45 44 44 43 42 42 43 42 43 44 44 43 42 42 41 40 39 38
12 10 8 6 5 5 6 7 9 12 14 16 18 20 22 24 25 27 28 29 29 30 31 31 32 33 34 36 38 39 39 39 40 40 41 43 45 47 49 50 52 53 54 55 55 55 55 55 56 57 58 58 57 56 53 48 44 45 47 50 52 54 56 56 53 50 47 45 45 45 44 44 44 44 43 42 42 41 39 40 42 41 40 39 37
11 9 7 6 5 6 7 9 11 14 16 17 19 21 22 24 26 27 28 29 30 30 31 32 32 33 35 36 37 38 39 39 39 40 41 43 44 46 48 50 52 53 54 54 55 55 55 55 55 55 57 57 56 55 52 46 42 42 43 45 48 53 56 56 53 51 49 47 47 47 47 47 46 45 44 42 41 39 38 39 40 40 40 39 37
11 9 7 6 6 7 8 11 13 15 16 18 19 21 22 24 25 26 27 28 29 30 31 33 34 34 34 35 35 37 39 40 41 42 43 43 45 46 48 50 51 52 53 54 55 56 56 55 55 55 55 55 54 53 50 46 42 41 42 42 45 50 54 53 51 51 50 50 50 49 49 48 46 46 45 43 40 38 38 38 37 38 40 39 35
10 8 6 6 6 8 9 11 13 15 16 18 19 21 23 24 25 26 26 27 29 30 32 33 35 35 34 35 36 38 40 42 44 45 45 45 46 47 48 50 52 53 54 55 56 57 57 56 56 56 55 54 53 51 49 46 42 41 41 41 44 48 50 50 50 50 49 50 51 50 49 47 47 46 45 42 39 36 35 36 35 34 36 38 36
9 7 6 6 6 8 10 12 14 15 16 18 19 21 22 23 24 25 27 28 30 31 32 33 34 35 36 37 39 40 42 44 46 47 48 48 48 48 49 51 52 52 53 55 56 57 57 57 58 57 56 56 54 51 48 44 41 39 41 42 42 43 45 46 48 48 47 48 49 49 49 48 46 46 43 40 38 35 31 31 30 28 31 36 36
8 7 6 6 7 9 11 12 14 15 16 18 19 20 21 22 24 26 27 29 31 31 32 33 35 37 38 39 42 43 44 46 48 49 50 50 50 50 51 51 51 49 50 53 55 55 55 57 58 58 57 56 54 51 47 42 40 40 42 42 40 40 41 43 45 45 45 45 46 47 48 47 45 43 40 37 35 33 29 27 26 26 30 34 35
8 7 6 7 8 10 11 12 14 15 17 19 20 20 21 22 24 26 28 30 31 32 33 35 36 39 41 43 45 46 47 49 50 51 52 52 52 52 52 52 51 47 45 47 49 50 51 55 57 57 56 53 51 49 46 42 41 43 44 43 42 42 42 43 43 42 42 43 43 44 45 44 41 39 36 34 32 31 28 25 24 26 30 31 31
8 7 7 8 9 10 11 13 14 16 18 19 19 20 21 23 25 27 28 30 31 33 34 36 38 41 44 46 48 49 50 51 52 53 53 53 54 54 53 53 52 46 42 43 46 48 50 53 54 54 53 50 48 47 46 45 46 47 46 45 45 43 41 42 42 41 40 40 40 42 42 41 38 36 33 32 30 27 25 23 23 25 27 27 27
8 8 8 9 9 11 12 14 15 17 17 18 19 20 22 24 26 27 28 29 31 34 36 38 40 43 45 48 50 51 52 54 55 55 55 55 55 55 54 54 53 49 46 47 48 48 49 50 51 51 51 50 49 49 50 50 51 50 48 47 45 42 40 41 41 39 39 38 39 40 40 38 35 33 31 29 26 23 22 21 22 23 23 23 24
9 8 9 10 11 12 13 14 15 16 17 18 19 21 23 25 27 28 29 30 32 35 37 40 42 44 46 48 51 53 55 56 57 57 56 56 57 56 55 55 55 52 50 49 49 48 48 49 51 51 51 51 50 51 51 51 51 50 49 47 44 41 39 39 39 38 38 38 39 39 38 35 32 30 28 24 21 19 19 20 21 20 20 21 22
9 9 10 11 12 13 14 14 15 15 16 18 20 22 24 26 27 29 30 32 34 37 39 41 43 45 47 49 51 53 55 57 58 57 57 57 58 57 56 56 54 52 50 50 50 50 52 52 52 52 52 51 50 50 49 49 49 49 47 45 42 40 39 39 38 37 36 37 38 37 35 32 29 27 24 21 18 17 18 19 19 19 19 20 21
10 11 11 12 13 13 14 14 15 16 17 19 21 23 24 26 27 29 30 33 36 38 41 42 43 44 47 49 51 53 56 57 56 55 55 56 55 54 53 53 52 50 50 50 50 51 52 53 52 52 51 50 49 49 48 48 47 46 45 43 41 40 39 39 38 36 33 33 35 34 31 29 26 24 21 18 17 18 18 18 18 18 19 20 21
11 12 12 12 13 13 14 15 16 17 19 20 22 23 25 26 28 29 31 33 36 38 41 42 43 44 46 47 48 50 54 56 55 54 54 53 50 48 47 47 47 47 47 47 48 50 51 52 51 51 51 49 49 49 48 47 46 45 43 42 40 38 39 39 37 34 31 32 32 30 28 26 23 21 19 18 18 19 18 18 17 18 19 20 22
12 12 12 13 13 14 15 15 16 18 20 22 23 24 25 26 28 30 32 34 36 38 40 41 41 42 44 46 46 47 48 50 51 51 51 50 49 47 46 45 45 45 45 44 45 48 50 50 50 50 50 50 50 49 47 45 45 45 43 41 38 38 39 38 34 31 31 31 30 27 25 23 21 19 18 18 19 19 19 18 18 18 20 21 24
12 12 13 14 14 15 15 15 17 19 20 22 24 26 26 27 29 31 33 35 37 38 39 40 40 41 42 45 46 47 47 46 46 46 46 46 45 45 45 46 45 44 43 42 43 45 46 47 47 47 47 47 46 46 45 44 43 43 41 39 39 40 40 36 32 31 31 30 27 25 22 21 19 17 18 19 20 20 20 19 19 20 21 22 24
13 14 14 15 14 15 15 16 18 20 21 22 24 26 29 31 32 33 35 36 38 39 40 40 40 40 41 42 44 46 47 47 47 46 44 42 41 40 41 43 43 43 41 39 40 41 42 42 44 44 44 44 44 43 42 42 41 40 38 39 41 40 37 33 30 30 29 27 24 22 21 19 17 17 18 20 21 21 21 20 20 22 22 23 25
14 15 15 14 14 15 16 17 19 20 21 23 25 27 29 32 35 36 38 39 40 41 41 40 40 41 41 42 42 43 44 45 46 46 44 43 41 39 38 39 39 38 36 35 36 38 39 40 42 43 43 44 44 42 41 40 39 38 39 39 39 36 33 30 29 28 27 24 22 20 18 17 16 17 18 20 21 21 21 22 23 23 24 25 28
15 15 14 14 15 15 16 18 19 20 22 24 26 28 30 32 34 37 39 40 42 44 44 42 41 42 43 43 43 43 43 42 42 42 42 42 41 39 38 38 37 35 32 32 35 37 39 40 42 43 44 44 42 41 40 39 38 38 38 37 34 32 30 29 27 26 24 22 20 18 16 15 15 17 18 20 20 20 21 23 24 24 25 26 28
15 15 15 15 15 16 17 18 19 20 22 24 26 28 29 31 32 35 37 39 41 43 44 44 43 42 43 44 44 44 44 43 42 40 39 39 39 37 37 37 37 36 35 35 37 38 39 41 42 43 44 42 40 39 39 37 36 36 34 32 30 29 28 27 25 24 22 20 18 16 14 13 14 16 18 19 20 22 23 23 23 23 24 25 26
15 15 15 15 16 16 17 18 19 21 22 24 25 27 28 30 31 33 34 36 38 39 42 44 44 44 43 43 44 44 45 44 44 42 40 38 36 34 34 35 37 38 38 38 39 40 40 40 41 42 41 39 38 39 38 36 33 32 30 29 28 26 25 24 23 21 20 18 16 13 12 12 14 16 18 20 22 23 22 21 21 21 22 23 23
16 16 15 15 16 16 17 18 20 21 22 24 25 26 27 29 30 32 33 34 35 37 39 42 44 45 46 45 45 45 45 45 44 42 40 38 35 33 32 34 36 37 39 40 41 41 40 39 38 38 37 35 35 36 35 32 30 29 28 26 24 22 21 21 20 19 17 16 14 11 10 12 14 17 19 21 22 21 20 20 21 21 21 21 21
16 16 15 16 16 17 17 18 20 21 22 23 24 25 27 28 29 30 31 32 34 35 37 39 41 43 45 46 46 46 46 46 45 44 42 40 39 37 36 35 35 36 38 40 41 40 38 37 35 33 31 31 32 32 31 29 28 27 25 22 20 19 18 18 17 16 16 14 11 8 10 13 16 18 19 20 20 19 19 19 19 19 20 19 18
16 16 16 16 17 17 17 18 20 20 21 22 23 24 26 27 28 29 30 31 32 33 35 37 38 39 41 43 45 46 47 47 47 46 45 44 42 40 38 37 36 36 37 38 38 37 35 34 31 28 27 27 28 28 28 27 26 24 22 19 16 16 16 15 15 15 14 11 7 7 10 14 17 18 18 19 18 17 17 17 16 17 18 18 18
16 16 17 17 17 17 18 18 19 19 20 21 22 23 24 25 26 28 28 29 30 32 33 35 36 37 38 39 40 41 43 44 44 44 44 43 42 40 38 36 36 36 35 36 35 34 32 31 27 24 24 25 26 26 26 25 23 22 20 16 13 13 13 13 13 12 11 7 5 7 10 13 15 16 17 18 17 15 14 14 15 15 16 17 17
16 17 18 17 17 17 17 18 18 18 19 20 21 22 23 24 25 26 26 27 29 30 32 32 34 34 35 35 35 35 36 38 40 40 40 39 39 38 36 34 33 33 33 33 33 31 29 27 24 22 22 23 23 23 23 22 21 20 18 14 11 10 9 9 9 8 6 5 5 6 7 10 12 13 15 17 17 15 14 14 14 15 15 15 16
18 18 18 17 17 17 17 17 17 17 18 19 20 21 22 23 23 24 25 26 27 29 30 31 32 33 33 33 33 32 32 34 35 36 37 37 35 34 33 32 31 30 29 29 28 27 25 22 20 20 20 21 21 21 21 21 20 19 17 13 9 7 6 5 5 4 5 5 5 5 5 7 9 10 13 15 16 16 15 15 15 15 16 15 15
19 19 17 16 16 16 16 16 16 16 17 18 19 20 21 21 22 23 24 25 26 27 29 31 32 32 32 32 32 32 32 32 33 34 35 35 34 32 31 30 30 28 27 25 23 22 20 19 18 18 19 20 21 22 22 21 20 19 16 12 8 6 3 2 2 4 6 6 5 4 6 7 8 9 11 13 15 16 16 16 15 16 16 16 16
20 18 17 16 15 15 15 15 15 15 16 17 18 19 20 20 21 22 23 24 24 25 27 28 30 31 32 32 32 32 32 31 31 32 33 33 33 32 31 30 29 27 26 24 22 21 20 18 17 17 18 20 22 23 22 20 19 17 15 11 8 5 3 1 2 4 5 4 4 6 8 10 10 11 12 14 16 17 17 17 16 16 17 17 17
19 17 16 15 14 14 14 14 14 15 16 16 17 18 19 20 21 21 22 23 23 24 25 26 27 28 30 31 31 32 31 31 31 31 31 31 31 31 30 30 28 27 25 24 22 21 21 20 19 19 20 22 23 23 22 19 16 15 13 11 7 4 2 2 2 3 3 3 4 7 9 11 12 12 13 15 16 17 17 17 17 16 16 16 15
18 16 15 14 14 13 13 13 13 14 15 16 17 17 18 18 19 20 20 21 22 23 23 24 25 26 27 28 29 30 30 30 30 31 30 30 30 29 29 29 28 27 25 24 23 22 22 22 21 22 22 23 23 22 19 16 13 12 11 10 8 5 2 2 3 4 4 5 6 8 9 11 12 13 13 15 16 17 17 16 16 15 15 14 14
17 15 14 13 13 12 12 13 13 14 15 15 16 16 17 17 17 18 18 19 20 21 22 23 23 25 25 26 27 28 29 29 29 29 30 30 29 28 28 27 27 26 26 24 23 22 22 21 21 21 21 21 20 18 16 13 10 9 9 9 8 7 6 6 5 6 6 7 8 8 9 10 11 12 13 14 15 15 15 15 14 14 14 13 13
15 14 13 12 12 12 12 12 13 13 14 14 14 14 15 15 16 16 17 17 18 19 20 21 22 24 24 25 25 26 27 27 27 27 28 28 28 28 27 27 26 26 26 25 24 23 21 20 19 18 18 17 15 14 12 11 8 6 6 6 6 6 7 7 7 7 7 8 8 9 9 8 9 10 12 13 14 14 15 14 14 14 15 15 15
14 13 12 12 11 12 12 12 12 13 13 13 13 13 13 14 14 15 15 16 17 18 20 21 22 23 24 25 25 25 25 26 26 26 26 27 27 27 27 26 25 25 25 25 24 22 20 19 17 16 15 14 13 11 11 9 7 6 5 4 4 4 4 4 5 5 6 6 7 8 8 9 9 10 12 13 13 14 14 14 15 15 16 16 16
14 13 12 12 12 12 12 12 12 12 12 12 12 12 12 12 13 14 15 16 17 18 19 20 21 22 23 24 25 25 25 26 26 26 25 25 25 25 25 25 24 24 24 24 23 22 20 18 16 15 13 11 10 10 9 8 6 5 4 4 3 3 2 2 2 2 3 4 6 7 9 10 11 12 12 13 13 14 14 14 15 15 16 16 16
13 13 12 12 12 12 11 11 11 11 11 11 11 12 12 12 13 13 14 16 17 17 18 19 20 22 23 24 24 25 25 25 25 25 25 25 24 25 25 24 23 22 22 22 22 22 20 18 17 15 14 12 10 9 8 7 6 4 3 2 2 1 1 0 1 2 3 4 6 7 8 10 10 11 12 12 13 13 14 14 14 15 15 14 14
Wind_Direction
160 161 158 156 155 152 151 151 149 148 146 142 130 95 41 15 8 1 353 350 347 344 342 342 341 340 339 337 336 334 334 333 333 333 333 334 333 333 332 331 331 330 329 330 330 329 328 327 328 329 328 325 325 325 324 323 320 318 315 312 309 303 293 282 276 282 292 298 295 294 295 294 295 294 292 292 293 293 292 290 288 289 292 294 295
160 161 160 159 159 157 155 153 150 148 145 146 145 101 17 360 359 355 347 343 342 340 338 338 338 337 337 336 336 336 336 336 335 335 334 333 333 333 333 332 332 331 331 331 331 330 329 329 329 330 328 326 326 326 324 323 320 317 315 311 309 308 302 292 285 282 290 300 300 298 298 296 295 296 294 292 292 292 290 290 291 293 294 295 293
163 164 165 164 164 163 161 158 157 155 148 136 78 22 359 354 351 346 342 340 340 339 339 340 340 340 339 339 338 338 338 337 337 336 336 335 335 334 334 333 333 332 332 331 331 330 329 328 328 328 327 325 325 325 324 322 320 317 315 313 310 308 307 300 292 287 290 297 301 301 302 300 299 299 298 296 295 294 294 294 295 295 294 293 291
168 169 169 170 169 168 167 164 161 158 157 158 7 357 347 349 348 344 344 344 344 343 343 342 342 340 339 339 339 339 338 338 337 337 337 336 335 334 333 332 331 331 330 330 329 329 327 327 326 326 325 324 323 324 323 322 321 319 317 316 314 311 309 303 296 291 288 292 297 301 301 299 299 300 299 297 297 297 297 297 296 295 293 291 290
173 174 175 176 174 171 171 168 170 179 188 202 288 339 345 349 350 350 349 346 344 342 341 340 338 337 337 336 336 336 336 336 335 334 334 333 331 331 330 329 329 328 327 327 326 326 325 324 324 324 324 323 322 323 323 322 321 320 318 318 317 314 311 306 300 295 289 288 294 299 300 298 298 299 298 296 298 299 298 298 296 294 292 292 291
178 180 180 179 177 174 176 178 183 192 195 204 327 344 346 348 349 348 345 342 340 337 336 335 333 333 332 332 332 332 332 332 331 330 330 329 328 327 327 326 326 325 325 324 324 324 323 322 322 322 322 322 322 322 322 322 321 320 319 319 318 316 313 309 305 300 292 289 291 295 298 298 296 296 296 296 296 297 297 296 295 294 294 294 294
184 184 182 180 180 179 182 186 188 191 203 303 339 342 343 344 344 342 340 337 334 332 331 330 329 329 328 328 328 328 329 329 328 327 327 327 326 326 325 324 324 323 323 322 322 322 321 321 321 322 322 322 322 322 322 322 321 320 319 320 319 316 314 311 308 303 296 292 292 292 294 296 295 293 295 295 294 293 293 294 294 296 296 294 294
186 184 182 181 183 183 184 187 193 219 301 329 337 340 340 340 339 337 335 332 330 328 327 326 326 326 326 326 327 327 328 327 327 327 326 326 326 325 325 324 323 323 322 321 321 321 320 320 320 321 321 322 322 322 322 322 321 319 319 320 319 316 314 312 308 305 300 295 293 292 292 293 293 292 293 293 291 290 292 293 293 294 294 293 293
186 185 184 185 185 186 189 199 224 281 318 330 334 335 334 334 334 333 331 329 328 327 326 326 326 325 325 326 327 327 328 329 329 329 328 328 327 326 325 324 323 322 321 320 320 319 319 318 318 319 319 319 320 320 320 320 319 318 318 319 317 315 313 311 308 306 303 298 295 294 293 292 292 291 291 290 289 290 293 292 290 291 292 291 291
187 186 187 188 189 192 201 217 254 297 318 326 329 330 331 331 331 331 330 329 329 328 328 328 327 327 326 327 327 328 330 331 331 330 330 328 326 324 323 322 321 320 319 318 318 318 317 317 317 317 317 318 318 318 318 318 318 317 317 317 315 313 311 310 308 306 303 299 297 295 293 291 292 291 290 290 290 290 291 289 288 290 290 287 287
188 188 190 191 195 202 212 230 270 302 317 325 328 330 331 331 332 332 332 331 330 329 329 329 328 328 328 328 329 330 331 332 330 329 328 326 325 323 321 320 320 319 319 319 318 317 317 317 316 316 317 316 317 317 316 317 317 317 316 315 313 311 309 307 306 305 303 299 296 295 292 290 291 292 290 291 292 291 290 289 288 287 285 283 284
190 191 193 196 201 208 219 245 284 310 321 328 331 333 334 334 334 334 333 332 331 331 330 330 330 330 329 329 329 330 331 331 330 328 327 326 325 323 321 320 320 319 319 319 318 318 317 316 316 315 315 316 316 316 316 316 316 316 315 313 312 310 308 305 302 301 301 298 294 293 291 290 291 291 291 292 293 292 292 290 287 285 283 281 280
193 195 196 200 205 214 234 268 302 320 328 332 334 335 335 335 334 334 334 333 332 331 331 330 330 329 329 328 327 328 330 331 330 329 328 327 325 323 321 320 319 318 318 318 317 316 316 316 315 314 314 315 315 315 315 315 315 314 313 312 311 310 310 307 302 300 300 297 292 291 292 292 291 290 291 293 295 293 291 288 287 285 282 280 280
197 199 200 203 211 230 260 292 316 326 331 334 335 335 336 335 335 335 334 333 332 331 330 329 328 328 328 327 327 328 330 331 331 330 328 326 324 322 320 319 317 316 315 315 315 315 315 316 315 314 313 315 316 317 317 316 315 314 312 311 310 310 310 308 305 303 302 299 294 293 294 292 289 289 291 293 293 293 291 289 287 285 283 282 283
200 201 204 210 226 252 280 306 320 329 333 335 336 336 336 335 335 334 334 333 331 330 328 327 327 327 328 328 327 327 329 331 330 328 327 325 323 320 319 317 316 315 314 314 314 314 314 315 315 314 314 314 316 317 317 316 314 312 310 309 309 309 308 307 307 306 305 303 301 300 299 297 293 290 290 290 291 292 291 290 288 285 282 280 277
201 203 210 222 242 265 290 313 324 331 335 336 336 336 336 335 334 333 332 330 328 327 326 326 327 327 328 329 327 326 327 329 329 327 326 325 322 320 319 317 316 315 314 314 314 314 313 313 313 313 313 313 314 315 314 313 311 309 307 307 307 306 306 306 307 307 306 306 305 303 302 301 300 297 293 291 291 290 289 288 285 282 278 274 269
202 208 218 233 255 280 302 320 328 333 335 336 336 336 335 334 333 331 328 326 325 325 325 326 327 328 328 328 327 326 326 328 329 329 328 326 324 322 320 319 317 316 315 314 313 312 311 311 311 311 310 310 310 311 311 311 309 307 305 305 305 305 305 306 308 306 305 304 302 300 300 299 300 300 298 296 292 288 284 282 280 278 274 268 262
205 214 227 245 269 293 311 324 331 334 336 336 335 335 333 332 330 328 325 324 324 325 325 325 326 327 327 327 326 325 326 329 330 330 329 328 326 323 322 319 317 316 315 313 312 311 310 309 309 309 308 308 308 308 309 310 309 306 304 303 303 303 304 307 307 306 304 302 299 298 298 298 299 300 301 299 293 287 282 278 278 275 269 263 256
212 221 236 258 282 304 319 327 332 334 335 334 333 331 330 328 327 325 324 323 323 325 325 324 324 325 326 326 326 327 328 329 331 330 329 328 326 324 322 319 317 316 315 313 311 310 309 309 308 308 307 306 306 307 308 310 309 306 304 303 301 301 304 307 306 305 303 301 300 300 299 299 299 300 301 299 294 288 283 279 276 270 264 258 249
217 228 246 267 290 311 322 327 330 331 331 330 329 327 326 324 323 322 321 322 323 324 325 324 323 324 325 326 328 329 330 330 331 331 329 328 326 324 321 318 317 316 314 312 311 310 310 309 308 307 307 306 306 307 308 310 309 305 303 301 299 301 306 307 305 303 301 300 300 301 300 299 299 300 300 298 294 291 286 280 273 265 259 254 246
222 233 253 273 295 312 321 326 327 327 326 325 324 324 322 321 320 321 322 323 323 323 324 324 324 324 326 328 329 331 331 330 331 330 329 327 325 323 320 318 317 315 313 312 311 310 310 310 309 308 307 306 306 307 308 308 306 303 302 301 300 303 305 304 303 303 301 299 300 300 298 297 298 299 298 295 295 295 291 281 272 263 256 251 244
226 237 256 277 298 312 318 321 321 320 320 320 319 319 319 320 321 323 324 324 324 324 325 327 326 326 327 329 330 331 331 330 330 329 327 326 324 322 320 318 317 315 313 311 310 309 309 308 308 308 307 306 306 306 306 305 303 303 304 303 302 302 302 301 303 304 302 300 298 296 296 296 297 297 296 294 296 298 294 286 273 259 250 246 242
228 240 259 281 298 308 312 313 314 314 315 316 316 317 319 321 323 325 325 325 325 326 327 329 329 328 328 329 330 330 330 330 329 327 326 324 323 321 319 318 317 316 313 310 308 306 305 305 305 306 306 305 305 304 303 301 301 305 309 308 305 303 302 303 307 308 305 301 297 295 295 296 296 295 294 293 295 295 292 284 270 254 244 237 232
230 244 264 283 295 301 304 307 309 311 313 314 315 318 320 323 325 326 326 327 327 327 329 330 330 329 329 329 329 329 329 328 327 326 325 324 322 320 319 318 317 315 310 306 304 303 303 305 306 306 306 306 305 303 302 302 303 307 312 312 308 306 303 305 309 311 307 302 298 295 295 295 294 293 291 291 292 290 285 275 259 247 239 231 225
236 252 270 283 291 296 301 304 307 309 311 313 315 319 321 324 325 326 327 328 328 329 329 329 329 328 327 327 326 327 327 327 326 325 325 324 321 320 319 318 316 315 311 309 309 309 308 307 307 307 307 306 305 303 303 303 305 309 312 311 308 306 304 306 310 310 306 302 300 298 295 293 291 289 287 287 285 281 274 262 246 235 230 225 219
244 258 271 281 288 294 298 302 305 307 310 313 318 322 325 326 326 328 329 329 330 329 329 328 327 326 325 325 325 325 326 325 325 325 325 323 321 320 319 317 316 317 316 315 315 314 311 309 308 307 307 305 303 302 302 303 306 310 309 307 306 304 304 306 308 306 303 302 301 298 294 290 287 283 282 282 276 267 258 247 235 224 220 218 210
250 261 271 281 288 292 296 299 302 305 310 316 321 325 327 327 327 328 330 330 329 328 327 326 326 325 325 325 325 325 324 324 325 325 324 322 321 321 320 319 319 319 317 317 316 314 311 310 308 306 305 304 303 302 302 303 305 306 305 304 304 302 303 306 306 303 301 300 298 294 289 284 280 279 279 274 261 248 238 234 228 215 209 211 203
255 265 274 282 287 290 295 298 303 308 314 320 323 325 326 326 326 328 329 328 327 326 325 325 326 327 327 327 327 325 323 323 325 325 324 324 323 322 321 320 318 316 315 314 313 312 309 308 308 307 306 305 304 303 302 302 302 301 301 302 303 301 304 308 307 303 302 300 296 290 284 278 276 276 273 261 242 230 222 221 222 212 204 204 197
260 269 276 281 287 292 297 301 307 313 318 321 324 325 325 325 325 326 327 326 325 325 324 325 327 329 329 329 329 327 325 324 325 326 326 325 323 320 317 315 314 312 312 312 311 310 309 309 308 308 307 305 304 303 303 303 302 301 302 303 301 302 306 309 308 305 304 300 293 286 279 275 274 273 263 243 225 218 214 211 212 207 200 198 191
264 271 279 286 291 294 298 303 309 315 319 321 322 322 322 323 324 324 324 325 324 325 325 327 329 331 329 328 328 328 327 326 327 327 326 325 322 319 316 315 314 312 312 312 311 309 307 307 306 306 305 304 304 304 303 303 303 303 304 302 300 304 309 309 307 306 304 296 288 281 276 274 272 266 250 230 215 208 203 203 205 203 197 194 186
269 277 283 287 289 292 297 306 313 318 321 322 321 320 319 319 321 322 323 324 324 325 325 327 330 332 331 328 327 327 328 328 328 327 325 324 322 320 318 316 315 315 315 315 312 308 307 306 306 307 307 307 306 306 305 305 305 304 302 301 302 307 310 308 306 305 301 292 283 278 274 271 267 255 236 219 210 202 196 196 198 196 194 192 183
272 277 279 281 285 292 302 311 316 318 320 320 320 320 320 320 321 323 324 324 324 324 325 327 330 331 332 331 331 330 329 329 328 327 327 325 321 318 317 316 316 318 321 320 314 311 312 311 310 311 312 311 310 309 308 307 305 303 302 303 306 309 309 308 307 304 296 288 281 277 273 268 257 240 224 212 205 199 193 192 192 188 184 180 175
269 271 275 280 288 299 307 313 315 317 318 319 319 320 321 322 322 323 323 323 323 323 325 329 331 332 332 333 335 334 333 331 330 328 328 325 322 321 321 320 319 322 324 323 319 318 318 316 314 314 314 313 312 311 309 308 305 303 304 306 308 309 310 309 307 301 293 286 279 274 271 263 247 227 213 205 201 197 191 186 182 179 173 167 163
265 269 276 284 293 302 307 311 314 316 316 318 319 320 321 322 322 322 321 321 322 323 326 330 334 334 334 334 335 336 335 334 332 331 330 328 328 329 327 324 324 326 327 327 326 324 322 320 317 316 315 315 314 312 309 306 305 305 307 309 309 310 311 310 305 298 290 283 276 270 266 256 238 220 207 199 194 189 183 176 172 170 168 163 159
265 271 278 287 294 301 305 308 311 313 314 315 317 318 320 321 321 322 323 323 323 323 325 330 334 336 337 336 335 334 334 335 335 335 334 334 334 333 330 328 329 331 332 332 331 327 324 323 321 319 318 318 316 313 309 308 309 310 310 312 313 313 313 309 303 297 289 280 273 268 261 245 226 212 203 195 185 176 169 165 164 165 165 162 158
265 271 279 287 293 298 303 306 309 310 312 314 316 317 319 321 322 324 324 325 325 326 328 330 332 333 335 338 338 336 336 337 338 338 337 337 337 335 333 333 333 333 333 332 330 326 325 324 321 320 320 320 318 315 312 311 313 314 314 315 316 315 313 308 302 296 288 278 271 264 251 232 213 201 193 184 175 169 166 162 161 162 163 160 158
265 272 279 286 292 297 302 305 306 308 311 313 315 318 321 323 325 326 326 326 328 331 333 334 334 333 334 337 339 339 338 339 340 339 338 338 338 338 337 336 335 333 330 327 324 323 322 321 319 319 321 322 321 318 315 315 317 317 316 317 317 316 313 307 300 293 285 277 271 259 239 217 200 191 185 178 171 169 168 164 162 161 161 161 160
265 272 280 286 292 296 299 301 303 306 309 313 317 321 324 326 327 327 328 330 333 335 336 337 338 338 337 337 339 339 339 340 341 340 339 339 340 341 340 338 334 328 322 319 320 320 320 319 320 322 325 325 323 320 319 318 319 318 318 317 319 319 316 308 299 291 284 278 270 247 220 204 193 188 185 181 176 171 168 166 164 162 161 162 163
267 275 282 286 290 292 294 298 302 305 310 316 320 323 326 327 327 328 330 333 336 338 339 340 340 341 341 341 341 341 341 342 343 342 340 340 340 339 337 333 328 322 320 319 320 322 321 321 323 326 328 327 325 323 322 320 320 320 319 318 321 324 320 312 302 293 285 277 257 220 203 198 194 191 188 186 180 172 167 166 166 165 163 163 164
270 277 281 282 285 289 293 298 302 307 314 319 323 325 326 327 328 330 332 335 338 339 341 341 341 343 344 345 346 346 344 343 343 343 341 340 338 336 334 331 327 325 324 322 322 322 323 323 326 330 331 329 326 326 325 323 323 323 321 317 320 323 320 313 305 295 284 264 219 195 195 197 196 194 192 189 184 176 171 171 170 170 170 168 167
271 274 276 279 283 289 293 299 304 311 317 322 324 325 326 327 329 331 334 337 339 339 340 341 341 344 346 348 349 348 346 345 345 344 343 340 338 336 335 334 332 329 326 323 322 324 324 325 329 334 333 329 329 331 330 328 327 327 325 322 322 321 316 312 305 290 266 223 190 183 191 198 199 198 196 195 191 185 181 180 177 176 176 176 176
267 270 273 277 282 288 294 300 306 313 318 322 324 325 325 327 329 332 334 338 339 338 339 339 341 344 347 349 349 348 347 347 347 347 345 344 342 342 342 342 340 337 333 328 327 327 328 330 336 339 335 330 331 335 337 334 331 330 332 334 332 322 312 306 294 261 215 187 178 182 193 202 206 205 202 201 199 195 190 188 185 181 180 182 185
263 266 270 274 281 287 293 300 307 313 318 321 323 324 325 327 330 332 334 337 337 337 337 338 340 342 346 349 349 348 348 348 348 348 347 347 347 347 348 350 350 350 347 343 341 341 343 346 346 342 336 333 334 337 338 337 333 332 337 346 351 342 322 283 224 198 183 174 180 203 216 219 218 214 208 205 204 200 196 193 191 189 188 189 190
259 262 266 272 278 284 291 300 308 314 317 320 322 323 325 327 329 331 333 333 334 335 336 336 338 341 344 347 349 350 350 349 348 347 347 348 349 350 351 353 355 357 358 359 359 359 358 355 349 343 337 334 334 335 335 334 331 331 336 347 4 18 27 67 171 181 182 186 205 225 231 230 227 222 214 207 205 202 198 195 195 195 197 198 197
255 258 263 269 275 282 292 301 307 312 315 318 320 322 324 326 327 330 331 332 333 334 334 335 337 340 343 346 348 349 350 351 350 348 347 346 346 348 350 351 352 354 356 357 358 357 354 350 346 341 336 332 331 330 329 326 324 325 329 335 348 15 60 113 159 184 199 215 232 243 245 242 237 230 219 209 205 202 199 199 200 201 203 204 204
252 256 260 267 274 282 291 298 304 309 313 315 317 319 323 326 328 331 333 333 334 335 335 336 338 340 342 345 346 347 349 350 350 350 349 347 345 345 346 347 348 348 348 349 350 350 349 347 343 340 337 334 330 327 324 320 317 315 316 320 322 317 291 221 199 200 209 223 238 249 252 249 244 235 221 209 204 201 200 202 206 206 208 210 209
250 254 259 266 274 282 289 295 301 306 309 311 315 320 324 328 331 334 335 337 338 339 339 340 341 340 342 344 344 345 347 349 350 350 351 349 348 346 344 343 343 342 342 343 343 343 344 344 343 341 340 337 333 329 326 324 320 312 308 309 309 304 294 278 258 240 231 232 237 243 247 247 241 229 215 204 199 199 201 204 206 208 209 212 212
248 252 259 266 274 281 288 294 300 304 306 310 316 321 326 330 333 336 338 340 342 343 343 344 344 343 344 344 344 344 345 346 347 349 350 350 350 349 347 346 344 341 338 337 337 338 340 342 343 344 345 343 342 340 337 335 334 329 321 313 307 302 296 285 272 257 244 238 237 235 232 230 225 215 204 197 196 200 203 204 206 208 210 211 212
246 251 258 267 274 280 287 293 297 300 305 311 317 322 326 331 333 335 337 339 341 342 343 343 343 344 344 345 344 344 344 344 345 347 349 349 349 350 350 350 350 346 342 338 336 337 338 339 341 345 349 351 355 357 355 352 351 352 352 349 341 330 316 296 275 257 243 234 228 218 209 200 196 196 196 195 198 203 206 207 209 210 211 212 214
245 251 258 266 273 280 285 290 294 298 303 309 315 320 324 328 331 334 335 336 338 340 340 340 341 341 341 342 343 344 345 345 344 345 346 347 348 347 348 350 352 352 349 345 341 339 338 338 337 338 341 346 354 1 4 2 2 5 15 27 30 21 4 335 288 252 231 221 214 207 200 194 190 191 195 199 203 206 208 210 212 214 215 217 219
245 251 258 265 271 277 282 285 289 294 300 306 311 316 320 324 327 330 332 333 335 337 338 338 339 339 339 339 340 341 342 343 344 344 344 345 345 345 345 347 349 351 352 349 346 343 341 339 337 335 335 336 342 348 350 347 346 352 4 22 34 45 53 340 230 218 213 212 210 208 205 202 198 198 201 204 207 210 211 212 214 216 217 220 223